Regional Weather Roundup
Issued by NWS New Orleans/Baton Rouge, LA

Home | Current Version | Previous Version | Graphics & Text | Print | Product List | Glossary On
Versions: 1 2 3 4 5 6 7 8 9 10 11 12 13 14 15 16 17 18 19 20 21 22 23 24 25 26 27 28 29 30 31 32 33 34 35 36 37 38 39 40 41 42 43 44 45 46 47 48 49 50
754
ASUS44 KLIX 290505
RWRLIX
NEW ORLEANS REGIONAL WEATHER ROUNDUP
NATIONAL WEATHER SERVICE NEW ORLEANS LA
1200 AM CDT TUE JUL 29 2014

NOTE: "FAIR" INDICATES FEW OR NO CLOUDS BELOW 12,000 FEET WITH NO
      SIGNIFICANT WEATHER AND/OR OBSTRUCTIONS TO VISIBILITY.
      SKY/WX - SKY CONDITION AND SIGNIFICANT WEATHER.
      TMP - AIR TEMPERATURE.     DP    - DEWPOINT TEMPERATURE.
      RH  - RELATIVE HUMIDITY.   PRES  - PRESSURE.
      HI  - HEAT INDEX.          WCI   - WIND CHILL INDEX.

*  THESE STATIONS ARE NOT NWS OR FAA STATIONS AND ARE NOT UNDER
   NWS QUALITY CONTROL.

LAZ038-040-048-061>063-065>067-069-290600-
SOUTHEAST LOUISIANA

CITY           SKY/WX    TMP DP  RH WIND       PRES   REMARKS
N.O. AUDUBON     N/A     84  79  84 MISG        N/A  HX  95
N.O. INTL ARPT MOCLDY    83  77  82 NW3       30.01F
N.O. LAKEFRONT MOCLDY    85  79  82 NW14      30.01F HX  98
N.O. DOWNTOWN* MOCLDY    88  73  62 NW5       30.01F HX  96
SLIDELL        MOCLDY    78  74  87 CALM      30.00F
BATON ROUGE    CLOUDY    77  72  84 CALM      30.02F
BOOTHVILLE     MOCLDY    84  79  85 W8        30.02F HX  96
BELLE CHASSE   MOCLDY    82  76  81 SW3       30.00F THUNDER
BOGALUSA*        N/A     79  73  81 N3        30.03S
GALLIANO*      NOT AVBL
NEW ROADS*       N/A     75  74  95 CALM      30.03S
GONZALES*        N/A     79  75  87 NW3       30.01F
HAMMOND*       MOCLDY    79  73  83 CALM      30.03F
HOUMA*         PTCLDY    82  74  76 NW8       30.02F
PORT FOURCHON* CLEAR     86  79  79 W12       30.04F HX  99

$$

MSZ070-080>082-290600-
SOUTHERN MISSISSIPPI

CITY           SKY/WX    TMP DP  RH WIND       PRES   REMARKS
MCCOMB         MOCLDY    76  71  85 N5        30.04S
GULFPORT       PTCLDY    84  76  76 W5        29.99S
BILOXI         PTCLDY    83  77  83 VRB2      29.99F
PASCAGOULA     PTCLDY    81  75  82 NW6       29.99S

$$

COASTAL OBSERVATIONS
LAKE AND NEARSHORE STATIONS

STATION/POSITION TIME  TEMP    WIND        PRES    WAVE
                       AIR SEA DIR/SP/G            HT/PER
                 (UTC) (F)     (DEG/KT/KT) (MB)    (FT/S)
PASCAGOULA       0400   85     310/  8/ 12 1015.0
WAVELAND YACHT   0400   81     300/  6/  7 1015.5
GRAND ISLE       0400   85 88  290/ 15/ 18 1017.5
SOUTHWEST PASS   0400   85 85  290/ 13/ 21 1017.0
NEW CANAL        0400   86 85  310/  4/  8 1016.9
SHELL BEACH      0400   79 83  350/ 14/ 25 1016.5

OFFSHORE STATIONS

STATION/POSITION TIME  TEMP    WIND        PRES    WAVE
                       AIR SEA DIR/SP/G            HT/PER
                 (UTC) (F)     (DEG/KT/KT) (MB)    (FT/S)
64 S DAUPHIN ISL 0433   85 86  260/ 17/ 19 1015.7

$$




USA.gov is the U.S. government's official web portal to all federal, state and local government web resources and services.